TimeCDT,TemperatureF,Dew PointF,Humidity,Sea Level PressureIn,VisibilityMPH,Wind Direction,Wind SpeedMPH,Gust SpeedMPH,PrecipitationIn,Events,Conditions,WindDirDegrees,DateUTC
12:51 AM,69.1,63.0,81,30.08,10.0,ESE,13.8,-,N/A,,Partly Cloudy,110,2013-04-22 05:51:00
1:51 AM,69.1,62.1,78,30.07,10.0,ESE,10.4,-,N/A,,Partly Cloudy,110,2013-04-22 06:51:00
2:51 AM,68.0,62.1,81,30.06,10.0,ESE,9.2,-,N/A,,Partly Cloudy,110,2013-04-22 07:51:00
3:51 AM,68.0,62.1,81,30.04,10.0,ESE,9.2,-,N/A,,Partly Cloudy,110,2013-04-22 08:51:00
4:51 AM,68.0,62.1,81,30.03,10.0,East,9.2,-,N/A,,Partly Cloudy,100,2013-04-22 09:51:00
5:51 AM,68.0,63.0,84,30.04,10.0,ESE,6.9,-,N/A,,Partly Cloudy,110,2013-04-22 10:51:00
6:51 AM,68.0,63.0,84,30.05,10.0,ESE,5.8,-,N/A,,Scattered Clouds,110,2013-04-22 11:51:00
7:27 AM,69.8,64.4,83,30.06,10.0,ESE,4.6,-,N/A,,Mostly Cloudy,110,2013-04-22 12:27:00
7:47 AM,69.8,64.4,83,30.06,10.0,East,8.1,-,N/A,,Partly Cloudy,100,2013-04-22 12:47:00
7:51 AM,70.0,64.0,81,30.06,10.0,ESE,10.4,-,N/A,,Partly Cloudy,110,2013-04-22 12:51:00
8:51 AM,73.9,64.0,71,30.06,10.0,East,10.4,-,N/A,,Scattered Clouds,100,2013-04-22 13:51:00
9:42 AM,75.2,64.4,69,30.07,10.0,ESE,12.7,-,N/A,,Mostly Cloudy,120,2013-04-22 14:42:00
9:51 AM,77.0,63.0,62,30.07,10.0,SE,16.1,20.7,N/A,,Mostly Cloudy,130,2013-04-22 14:51:00
10:51 AM,80.1,63.0,56,30.08,10.0,SE,15.0,-,N/A,,Mostly Cloudy,140,2013-04-22 15:51:00
11:51 AM,80.1,63.0,56,30.07,10.0,SE,13.8,18.4,N/A,,Mostly Cloudy,130,2013-04-22 16:51:00
12:51 PM,82.0,63.0,52,30.04,10.0,South,8.1,21.9,N/A,,Scattered Clouds,180,2013-04-22 17:51:00
1:51 PM,84.0,62.1,47,30.00,10.0,SE,11.5,19.6,N/A,,Scattered Clouds,130,2013-04-22 18:51:00
2:51 PM,87.1,63.0,44,29.97,10.0,SSE,16.1,21.9,N/A,,Scattered Clouds,150,2013-04-22 19:51:00
3:51 PM,84.9,63.0,48,29.95,10.0,SE,13.8,21.9,N/A,,Scattered Clouds,130,2013-04-22 20:51:00
4:51 PM,82.9,63.0,51,29.93,10.0,SE,16.1,21.9,N/A,,Scattered Clouds,130,2013-04-22 21:51:00
5:51 PM,82.0,62.1,51,29.91,10.0,SE,18.4,-,N/A,,Partly Cloudy,140,2013-04-22 22:51:00
6:51 PM,79.0,64.0,60,29.91,10.0,SE,20.7,-,N/A,,Partly Cloudy,130,2013-04-22 23:51:00
7:51 PM,75.0,64.9,71,29.92,10.0,SE,18.4,-,N/A,,Partly Cloudy,130,2013-04-23 00:51:00
8:51 PM,73.9,64.9,73,29.94,10.0,SE,18.4,-,N/A,,Partly Cloudy,130,2013-04-23 01:51:00
9:51 PM,73.0,66.0,79,29.95,10.0,SE,18.4,-,N/A,,Scattered Clouds,140,2013-04-23 02:51:00
10:51 PM,72.0,66.0,81,29.95,10.0,SE,16.1,-,N/A,,Partly Cloudy,140,2013-04-23 03:51:00
11:51 PM,72.0,66.0,81,29.94,10.0,SE,16.1,-,N/A,,Partly Cloudy,140,2013-04-23 04:51:00